Flag for U.S.A. Weather past 2 weeks in Laredo, Texas, U.S.A.

Now
82 °F

Clear.


Feels Like: 86 °F
Forecast: 78 / 100 °F
Wind: No wind

Location: Laredo International Airport

Current Time: Jul 31, 2015 at 3:22:01 AM

Latest Report: Jul 31, 2015 at 2:56 AM


Visibility: 10 mi

Pressure: 30.00 "Hg

Humidity: 69%

Dew point: 71 °F

Location of LaredoLocation

Historic Weather in Laredo — Graph

°F

Laredo temperature yesterday

Maximum temperature yesterday: 104 °F (at 4:56 PM)
Minimum temperature yesterday: 75 °F (at 6:56 AM)
Average temperature yesterday: 89 °F

Past Weeks' High & Low Weather Summary

 TemperatureHumidityPressure
High107 °F (Jul 26, 4:56 PM)91% (Jul 30, 6:56 AM)30.05 "Hg (Jul 30, 6:56 AM)
Low75 °F (Jul 30, 6:56 AM)20% (Jul 29, 2:56 PM)29.73 "Hg (Jul 21, 6:56 PM)
Average90 °F55%29.88 "Hg
* Reported Jul 16 1:56 AM — Jul 31 1:56 AM, Laredo, Weather by CustomWeather, © 2015

Note: Actual official high and low records may vary slightly from our data, if they occured in-between our weather recording intervals... More about our weather records

Advertising

Laredo weather history for previous 24 hours

 ConditionsComfort  
Time TempWeatherWind HumidityBarometerVisibility
1:56 AM
Fri, Jul 31
84 °FClear.7 mph65%30.02 "Hg10 mi
12:56 AM85 °FClear.7 mph59%30.03 "Hg10 mi
11:56 PM
Thu, Jul 30
87 °FClear.10 mph53%30.02 "Hg10 mi
10:56 PM89 °FClear.12 mph48%29.99 "Hg10 mi
9:56 PM92 °FClear.15 mph42%29.96 "Hg10 mi
8:56 PM94 °FSunny.9 mph33%29.94 "Hg10 mi
7:56 PM97 °FSunny.9 mph27%29.92 "Hg10 mi
6:56 PM100 °FSunny.8 mph24%29.92 "Hg10 mi
5:56 PM102 °FSunny.15 mph22%29.93 "Hg10 mi
4:56 PM104 °FSunny.14 mph21%29.95 "Hg10 mi
3:56 PM102 °FScattered clouds.10 mph25%29.97 "Hg10 mi
2:56 PM102 °FSunny.8 mph27%30.00 "Hg10 mi
1:56 PM99 °FPassing clouds.10 mph31%30.01 "Hg10 mi
12:56 PM96 °FSunny.No wind41%30.03 "Hg10 mi
11:56 AM93 °FSunny.No wind51%30.04 "Hg10 mi
10:56 AM90 °FSunny.6 mph57%30.05 "Hg10 mi
9:56 AM87 °FSunny.9 mph65%30.05 "Hg10 mi
8:56 AM82 °FSunny.9 mph79%30.04 "Hg10 mi
7:56 AM76 °FClear.5 mph90%30.02 "Hg10 mi
6:56 AM75 °FClear.No wind91%30.00 "Hg10 mi
5:56 AM76 °FClear.No wind88%29.99 "Hg10 mi
4:56 AM77 °FClear.No wind85%29.98 "Hg10 mi
3:56 AM78 °FClear.8 mph79%29.99 "Hg10 mi
Weather by CustomWeather, © 2015

See weather overviewHow to use our weather pages